Location: Rostock
(54.0884°N, 12.1234°E)
Time: 05:51:42
(UTC+01:00)

ISS - Pass Details

Date: 12 January 2018
Orbit: 401 x 406 km, 51.6° (Epoch: 17 January)

Event Time Altitude Azimuth Distance (km) Brightness Sun altitude
Exits shadow 04:52:15 11° 117° (ESE) 1,432 -0.4 -30.1°
Drops below altitude 10° 04:52:20 10° 117° (ESE) 1,464 -0.3 -30.1°
Sets 04:54:27 0° 111° (ESE) 2,324 1.0 -29.8°
